Tracking 30995 objects as of 5-Jul-2025
HD Live streaming from Space Station
objects crossing your sky now

SL-14 R/B

Track SL-14 R/B now!
10-day predictions


NORAD ID: 13590
Int'l Code: 1982-096B
Perigee: 1,497.7 km
Apogee: 1,507.1 km
Inclination: 82.6 °
Period: 115.9 minutes
Semi major axis: 7873 km
RCS: 3.9481 m2 (large)
Launch date: September 24, 1982
Source: Commonwealth of Independent States (former USSR) (CIS)
Launch site: PLESETSK MISSILE AND SPACE COMPLEX (PKMTR)

Note: This is a ROCKET BODY
Your satellite tracking list
Your tracking list is empty




NASA's NSSDC Master Catalog

Two Line Element Set (TLE):
1 13590U 82096B   25185.90618096  .00000013  00000-0  20138-4 0  9995
2 13590  82.6114 317.1628 0005967 356.7364 123.7039 12.42683487940408
Source of the keplerian elements: AFSPC